Regional Weather Roundup
Issued by NWS

Home | Current Version | Previous Version | Graphics & Text | Print | Product List | Glossary On
Versions: 1 2 3 4 5 6 7 8 9 10 11 12 13 14 15 16 17 18 19 20 21 22 23 24 25 26 27 28 29 30 31 32 33 34 35 36 37 38 39 40 41 42 43 44 45 46 47 48 49 50
000
ASUS43 KDTX 021510
RWRMI
MICHIGAN HOURLY REGIONAL WEATHER ROUNDUP
NATIONAL WEATHER SERVICE DETROIT/PONTIAC MI
1100 AM EDT TUE SEP 02 2014

NOTE: "FAIR" INDICATES FEW OR NO CLOUDS BELOW 12,000 FEET WITH NO
SIGNIFICANT WEATHER AND/OR OBSTRUCTION TO VISIBILITY.

MIZ047>049-052>055-059>063-066>070-074>076-081>083-021600-
SOUTHEAST LOWER MICHIGAN

CITY           SKY/WX    TMP DP  RH WIND       PRES   REMARKS
ADRIAN         LGT RAIN  68  66  93 W7        29.90R
ALMA           SUNNY     73  62  67 W5        29.88R
ANN ARBOR      CLOUDY    73  67  81 SW8       29.87S
BAD AXE        CLOUDY    73  68  86 W7        29.85S
CARO           PTSUNNY   72  66  81 W6        29.87R
DETROIT CITY   LGT RAIN  73  66  78 W6        29.86F
DETROIT        LGT RAIN  70  67  90 S9        29.88R
FLINT          PTSUNNY   76  64  66 VRB7      29.87S
GROSSE ILE     CLOUDY    72  66  83 SW6       29.87R
HILLSDALE      CLOUDY    73  69  89 W5        29.90S
HOWELL         PTSUNNY   71  67  87 W7        29.88S

CITY           SKY/WX    TMP DP  RH WIND       PRES   REMARKS
JACKSON        CLOUDY    72  66  81 W7        29.89R
LAMBERTVILLE   CLOUDY    70  64  83 SW6       29.90R
LANSING        MOSUNNY   73  63  70 VRB3      29.89R
LAPEER         PTSUNNY   72  64  75 NW8       29.87S
MASON          MOSUNNY   72  64  76 W7        29.89S
MONROE         CLOUDY    70  66  88 SW9       29.88R
MT. CLEMENS    CLOUDY    70  69  95 SW3       29.85R
PONTIAC        PTSUNNY   72  64  76 NW8       29.86F
PORT HOPE        N/A     72  65  78 CALM      29.82S
PORT HURON     LGT RAIN  70  70 100 MISG      29.86S
TRI CITIES     SUNNY     73  62  68 SW7       29.87S
TROY           CLOUDY    72  67  84 SW3       29.88S
SAGINAW HB     SUNNY     75  61  60 W5        29.86S
$$
MIZ043>046-050>051-056>058-064>065-071>073-077>080-021600-
SOUTHWEST LOWER MICHIGAN

CITY           SKY/WX    TMP DP  RH WIND       PRES   REMARKS
BATTLE CREEK   PTSUNNY   74  62  66 NW5       29.91R
BENTON HARBOR  MOSUNNY   71  64  78 VRB3      29.91R
BIG RAPIDS     SUNNY     72  59  63 NW9       29.88S
COLDWATER      CLOUDY    73  68  84 W7        29.91R
FREMONT        FAIR      73  55  52 NW7       29.89R
HOLLAND        MOSUNNY   75  63  66 SW5       29.90R
GRAND RAPIDS   MOSUNNY   75  64  68 W6        29.89R
IONIA          FAIR      73  62  69 CALM      29.88R
KALAMAZOO      PTSUNNY   74  64  71 NW6       29.90R
LUDINGTON      SUNNY     69  60  71 W6        29.89R
MARSHALL       CLOUDY    72  66  81 NW6       29.89S
MOUNT PLEASANT SUNNY     73  60  64 NW7       29.87R
MUSKEGON       MOSUNNY   76  57  51 NW8       29.89R
SOUTH HAVEN    MOSUNNY   74  65  74 CALM      29.90S
$$
MIZ016>042-021600-
NORTHERN LOWER MICHIGAN

CITY           SKY/WX    TMP DP  RH WIND       PRES   REMARKS
ALPENA         SUNNY     72  60  66 NW7       29.83R
BEAVER ISLAND  SUNNY     70  61  73 W10       29.84R
BELLAIRE       SUNNY     70  59  66 SW6       29.85S
CADILLAC       SUNNY     71  59  66 W10       29.88R
CHARLEVOIX     SUNNY     70  63  80 W10       29.87S
FRANKFORT      SUNNY     70  61  74 W6        29.87R
GAYLORD        PTSUNNY   67  61  81 W7        29.86R
GRAYLING       PTSUNNY   68  66  95 SW3       29.88R
HARBOR SPRINGS SUNNY     69  61  76 SW9       29.84R
HOUGHTON LAKE  SUNNY     68  61  78 W8        29.87S
MANISTEE       SUNNY     70  57  64 W8        29.89R
OSCODA         MOSUNNY   73  62  67 NW3       29.83S
PELLSTON       SUNNY     72  59  63 W9G17     29.83R
ROGERS CITY    SUNNY     72  63  73 W8        29.83R
TRAVERSE CITY  MOSUNNY   72  57  59 W7        29.85R
$$
MIZ007>008-015-021600-
EASTERN UPPER MICHIGAN

CITY           SKY/WX    TMP DP  RH WIND       PRES   REMARKS
KINROSS        PTSUNNY   66  61  82 CALM      29.82R
MACKINAC ISLAN MOSUNNY   66  62  89 W7        29.82R
NEWBERRY       MOSUNNY   67  58  74 W7G18     29.82S
S. S. MARIE    SUNNY     67  59  75 SW6       29.81R
MUNISING         N/A     70  57  63 SW6       29.80R
$$
MIZ004>006-011>014-085-021600-
CENTRAL UPPER MICHIGAN

CITY           SKY/WX    TMP DP  RH WIND       PRES   REMARKS
MANISTIQUE     MOSUNNY   70  58  66 CALM      29.82S
ESCANABA       PTSUNNY   68  55  64 W5        29.84R
MENOMINEE      CLOUDY    64  57  77 W5        29.86R
SAWYER-GWINN   SUNNY     64  55  72 SW6       29.83R
$$
MIZ001>003-009>011-084-021600-
WESTERN UPPER MICHIGAN

CITY           SKY/WX    TMP DP  RH WIND       PRES   REMARKS
IRON MOUNTAIN  CLOUDY    63  57  81 W3        29.83S
HOUGHTON       MOSUNNY   62  55  77 W16       29.80R
COPPER HARBOR    N/A     66  54  65 N8        29.76R
$$

ABBREVIATIONS USED IN REMARKS
   TC - TEMPERATURE IN CELSIUS
  WCI - WIND CHILL INDEX
   HX - HEAT INDEX
  VSB - VISIBILITY




USA.gov is the U.S. government's official web portal to all federal, state and local government web resources and services.